�N����,����,�~����,�C��,���x,�C��,����,���ϕ���,�ő�u�ԕ���,�ő厞����,���˗�,�I�_���x,�n�����x,�ő啗���N��,DTYPE
"22/04/14","00:10",0.0,17.2,81.8,1010.7,332.2,2.3,3.3,337.4,0.00,14.1,17.3,"00:04:48",1
"22/04/14","00:20",0.0,17.2,82.3,1010.7,331.8,2.5,3.5,340.1,0.00,14.2,17.5,"00:16:08",1
"22/04/14","00:30",0.0,17.1,82.7,1010.2,329.7,2.5,3.7,345.7,0.00,14.2,17.4,"00:20:16",1
"22/04/14","00:40",0.0,17.0,83.0,1010.4,329.8,2.3,3.2,338.5,0.00,14.1,17.6,"00:37:12",1
"22/04/14","00:50",0.0,17.1,83.1,1010.2,318.4,2.7,3.3,319.9,0.00,14.3,17.3,"00:44:00",1
"22/04/14","01:00",0.0,17.0,83.2,1010.7,328.0,2.8,4.3,328.3,0.00,14.2,17.5,"00:59:52",1
"22/04/14","01:10",0.0,17.0,83.3,1010.7,329.2,3.1,4.5,340.2,0.00,14.2,17.3,"01:05:28",1
"22/04/14","01:20",0.0,16.9,83.4,1010.2,324.3,2.7,3.5,314.7,0.00,14.1,17.4,"01:11:36",1
"22/04/14","01:30",0.0,16.8,83.7,1010.2,334.4,3.1,4.7,318.6,0.00,14.1,17.3,"01:26:00",1
"22/04/14","01:40",0.0,16.7,84.0,1010.4,331.7,2.7,4.2,334.5,0.00,14.0,17.3,"01:30:02",1
"22/04/14","01:50",0.0,16.7,84.2,1010.0,327.2,3.0,3.9,332.3,0.00,14.1,17.4,"01:40:08",1
"22/04/14","02:00",0.0,16.7,84.3,1010.2,306.4,2.5,3.5,332.9,0.00,14.1,17.3,"01:52:48",1
"22/04/14","02:10",0.0,16.6,84.5,1010.2,300.9,2.2,3.6,315.1,0.00,14.0,17.2,"02:09:12",1
"22/04/14","02:20",0.0,16.7,84.6,1010.2,310.2,2.6,4.4,319.0,0.00,14.1,17.2,"02:18:40",1
"22/04/14","02:30",0.0,16.6,84.8,1010.0,333.3,2.8,3.6,321.2,0.00,14.1,17.2,"02:20:08",1
"22/04/14","02:40",0.0,16.5,85.0,1010.0,327.2,2.6,4.0,337.1,0.00,14.0,17.2,"02:30:40",1
"22/04/14","02:50",0.0,16.5,85.2,1010.0,329.4,2.7,4.0,337.7,0.00,14.0,17.0,"02:49:44",1
"22/04/14","03:00",0.0,16.5,85.4,1010.0,335.1,2.8,4.7,339.0,0.00,14.1,17.0,"02:56:48",1
"22/04/14","03:10",0.0,16.5,85.5,1010.0,317.3,3.0,3.9,321.8,0.00,14.1,17.0,"03:01:52",1
"22/04/14","03:20",0.0,16.5,85.6,1010.0,312.0,3.2,4.2,312.4,0.00,14.1,17.1,"03:19:12",1
"22/04/14","03:30",0.0,16.4,85.7,1010.2,312.5,3.4,5.7,321.6,0.00,14.0,16.7,"03:23:12",1
"22/04/14","03:40",0.0,16.4,85.9,1010.0,331.9,2.8,4.0,329.8,0.00,14.1,16.8,"03:37:28",1
"22/04/14","03:50",0.0,16.3,86.1,1010.2,312.7,2.8,4.2,323.0,0.00,14.0,16.8,"03:41:12",1
"22/04/14","04:00",0.0,16.4,86.3,1009.7,316.4,2.7,4.2,330.5,0.00,14.1,16.9,"03:55:04",1
"22/04/14","04:10",0.0,16.4,86.4,1010.2,318.9,2.8,3.6,334.2,0.00,14.2,16.7,"04:05:36",1
"22/04/14","04:20",0.0,16.4,86.4,1009.7,317.6,2.6,3.4,318.3,0.00,14.2,16.7,"04:15:12",1
"22/04/14","04:30",0.0,16.4,86.5,1010.0,320.5,2.2,3.5,333.8,0.00,14.2,16.9,"04:25:20",1
"22/04/14","04:40",0.0,16.3,86.7,1010.2,325.4,2.6,4.1,326.1,0.00,14.1,16.8,"04:39:20",1
"22/04/14","04:50",0.0,16.3,86.8,1010.4,309.3,2.2,3.2,332.3,0.00,14.1,16.8,"04:43:28",1
"22/04/14","05:00",0.0,16.3,86.9,1010.4,296.9,1.8,2.8,324.4,0.00,14.2,16.7,"04:50:16",1
"22/04/14","05:10",0.0,16.3,87.2,1010.7,325.1,2.0,2.9,317.7,0.00,14.2,16.7,"05:01:52",1
"22/04/14","05:20",0.0,16.2,87.4,1010.7,316.9,2.2,3.7,308.3,0.00,14.1,16.7,"05:14:48",1
"22/04/14","05:30",0.0,16.1,87.8,1010.7,325.7,2.0,2.9,336.0,0.00,14.1,16.6,"05:29:20",1
"22/04/14","05:40",0.2,16.1,88.3,1010.7,325.7,2.1,2.9,321.5,0.00,14.2,16.6,"05:31:04",1
"22/04/14","05:50",0.2,15.9,89.0,1010.7,325.0,2.6,3.9,312.6,0.00,14.1,16.7,"05:42:32",1
"22/04/14","06:00",0.2,15.8,89.6,1010.9,332.2,2.0,2.8,334.5,0.00,14.1,16.7,"05:50:16",1
"22/04/14","06:10",0.2,15.7,90.3,1010.7,327.0,2.3,3.4,330.4,0.00,14.2,16.5,"06:05:04",1
"22/04/14","06:20",0.2,15.6,90.8,1010.2,335.0,2.2,3.3,342.2,0.00,14.1,16.5,"06:13:28",1
"22/04/14","06:30",0.2,15.7,91.3,1010.0,326.7,2.5,3.6,328.7,0.00,14.3,16.6,"06:27:36",1
"22/04/14","06:40",0.2,15.7,91.8,1010.7,263.3,2.1,3.7,249.0,0.00,14.4,16.4,"06:36:16",1
"22/04/14","06:50",0.0,15.8,92.1,1010.7,282.3,1.5,2.9,249.9,0.00,14.6,16.6,"06:40:40",1
"22/04/14","07:00",0.0,15.9,92.4,1010.7,341.9,1.1,2.6,337.2,0.00,14.7,16.5,"06:56:24",1
"22/04/14","07:10",0.2,15.8,92.7,1010.7,322.7,2.3,3.5,313.9,0.01,14.7,16.4,"07:07:28",1
"22/04/14","07:20",0.0,15.9,93.0,1010.2,328.3,2.0,2.7,316.2,0.01,14.8,16.6,"07:15:04",1
"22/04/14","07:30",0.0,16.0,93.3,1010.2,325.6,2.0,2.8,324.5,0.02,15.0,16.5,"07:21:20",1
"22/04/14","07:40",0.0,16.2,93.5,1010.0,302.9,1.5,2.5,328.9,0.04,15.2,16.4,"07:34:32",1
"22/04/14","07:50",0.0,16.4,93.7,1010.0,250.6,1.2,1.9,248.3,0.07,15.4,16.4,"07:47:12",1
"22/04/14","08:00",0.0,16.6,93.7,1009.7,252.1,0.8,1.8,257.4,0.08,15.6,16.5,"07:56:40",1
"22/04/14","08:10",0.0,16.7,93.9,1010.2,279.5,1.3,1.8,247.5,0.09,15.8,16.4,"08:00:16",1
"22/04/14","08:20",0.0,17.1,94.1,1010.2,289.1,1.3,2.5,328.4,0.14,16.2,16.5,"08:15:52",1
"22/04/14","08:30",0.0,17.4,93.7,1010.4,253.0,1.1,2.1,242.0,0.12,16.4,16.4,"08:24:16",1
"22/04/14","08:40",0.0,17.5,93.6,1010.4,271.7,1.3,2.5,307.2,0.11,16.5,16.4,"08:37:44",1
"22/04/14","08:50",0.0,18.1,93.4,1010.7,289.0,0.8,1.4,271.7,0.12,17.1,16.5,"08:40:08",1
"22/04/14","09:00",0.0,17.7,92.8,1010.2,312.7,2.2,4.5,333.0,0.12,16.6,16.5,"08:59:44",1
"22/04/14","09:10",0.0,18.0,92.9,1010.4,324.2,2.7,4.1,349.0,0.17,16.9,16.7,"09:00:08",1
"22/04/14","09:20",0.0,18.1,91.9,1010.4,314.8,2.6,4.3,314.6,0.22,16.8,16.6,"09:19:12",1
"22/04/14","09:30",0.0,18.9,91.0,1010.4,299.8,1.8,3.5,321.8,0.28,17.4,16.8,"09:25:44",1
"22/04/14","09:40",0.0,19.0,89.1,1010.2,323.2,3.1,4.7,333.0,0.25,17.2,16.4,"09:37:12",1
"22/04/14","09:50",0.0,19.6,87.4,1010.2,332.3,2.3,4.0,343.1,0.22,17.5,16.8,"09:43:44",1
"22/04/14","10:00",0.0,19.7,85.3,1010.4,333.1,2.5,4.1,331.8,0.18,17.2,16.7,"09:52:56",1
"22/04/14","10:10",0.0,19.9,83.8,1010.4,332.8,2.6,3.9,334.6,0.13,17.1,16.8,"10:09:52",1
"22/04/14","10:20",0.0,19.6,83.3,1010.2,333.8,3.0,4.8,349.1,0.14,16.7,16.6,"10:19:44",1
"22/04/14","10:30",0.0,19.4,83.3,1010.4,328.5,3.0,5.5,316.9,0.15,16.5,16.9,"10:29:12",1
"22/04/14","10:40",0.0,19.3,83.4,1010.4,318.5,3.0,5.0,333.1,0.13,16.5,16.8,"10:30:16",1
"22/04/14","10:50",0.0,19.5,83.4,1010.2,318.0,2.6,3.7,317.9,0.15,16.7,16.8,"10:44:16",1
"22/04/14","11:00",0.0,19.9,83.1,1010.2,311.4,2.2,3.3,333.5,0.18,17.0,16.9,"10:50:08",1
"22/04/14","11:10",0.0,20.3,82.7,1009.7,306.8,2.2,3.7,319.2,0.22,17.3,17.2,"11:08:56",1
"22/04/14","11:20",0.0,20.6,82.1,1009.5,291.1,2.2,3.7,319.5,0.28,17.5,17.0,"11:18:24",1
"22/04/14","11:30",0.0,20.8,80.4,1009.3,300.7,2.6,4.4,318.7,0.38,17.3,16.9,"11:25:20",1
"22/04/14","11:40",0.0,21.0,79.6,1009.3,288.6,2.2,4.7,336.1,0.22,17.4,17.1,"11:32:00",1
"22/04/14","11:50",0.0,20.9,79.8,1009.3,313.7,3.0,4.0,345.1,0.19,17.3,17.1,"11:47:44",1
"22/04/14","12:00",0.0,20.8,79.7,1008.8,294.5,2.6,4.3,294.7,0.17,17.2,17.2,"11:58:32",1
"22/04/14","12:10",0.0,21.2,79.5,1008.6,307.7,2.2,3.5,320.5,0.16,17.6,17.1,"12:08:48",1
"22/04/14","12:20",0.0,21.6,78.7,1008.1,320.1,2.5,3.6,329.0,0.19,17.8,17.2,"12:10:56",1
"22/04/14","12:30",0.0,22.0,77.9,1008.3,302.3,2.2,4.1,324.9,0.25,18.0,17.2,"12:22:56",1
"22/04/14","12:40",0.0,23.0,75.9,1008.1,293.3,1.2,2.9,243.7,0.32,18.6,17.2,"12:31:04",1
"22/04/14","12:50",0.0,23.3,73.2,1008.1,347.3,1.6,2.9,348.9,0.27,18.3,17.2,"12:47:44",1
"22/04/14","13:00",0.0,23.1,73.3,1007.8,343.3,2.2,3.6,341.6,0.17,18.1,17.3,"12:59:04",1
"22/04/14","13:10",0.0,22.6,74.4,1007.6,334.7,3.0,4.7,349.6,0.15,17.9,17.5,"13:02:24",1
"22/04/14","13:20",0.0,22.4,74.6,1007.8,302.9,2.6,4.0,256.8,0.09,17.7,17.7,"13:16:56",1
"22/04/14","13:30",0.0,21.8,75.1,1007.8,304.7,3.0,6.3,318.3,0.07,17.2,17.7,"13:27:44",1
"22/04/14","13:40",0.0,21.3,76.4,1007.4,318.6,3.5,4.9,338.6,0.08,17.0,17.5,"13:30:02",1
"22/04/14","13:50",0.0,21.3,77.6,1007.4,307.9,2.6,5.8,311.9,0.12,17.3,17.5,"13:46:32",1
"22/04/14","14:00",0.0,21.3,77.3,1007.6,308.0,2.7,5.1,314.1,0.07,17.2,17.8,"13:56:00",1
"22/04/14","14:10",0.0,21.0,77.7,1007.4,309.9,3.1,5.2,333.1,0.04,17.0,17.6,"14:00:56",1
"22/04/14","14:20",0.0,20.9,78.4,1007.6,306.0,2.6,5.0,317.7,0.03,17.0,17.5,"14:12:48",1
"22/04/14","14:30",0.0,21.0,78.7,1007.1,315.1,2.3,4.0,316.2,0.11,17.2,17.7,"14:28:48",1
"22/04/14","14:40",0.0,21.4,78.2,1007.1,331.2,2.7,4.7,341.7,0.18,17.5,17.5,"14:39:12",1
"22/04/14","14:50",0.0,21.3,77.4,1006.9,317.5,3.2,5.1,336.4,0.09,17.2,17.5,"14:43:44",1
"22/04/14","15:00",0.0,21.2,77.7,1006.9,299.0,2.5,4.4,272.5,0.08,17.2,17.6,"14:56:32",1
"22/04/14","15:10",0.0,21.0,77.6,1006.7,306.1,2.7,4.5,318.7,0.06,17.0,17.7,"15:00:40",1
"22/04/14","15:20",0.0,20.8,77.7,1007.1,306.2,2.6,4.2,330.5,0.03,16.8,17.8,"15:18:00",1
"22/04/14","15:30",0.0,20.3,78.3,1006.9,296.4,2.7,4.5,328.5,0.01,16.4,17.7,"15:24:48",1
"22/04/14","15:40",0.0,20.0,78.8,1007.4,304.6,2.6,4.9,321.8,0.02,16.2,17.9,"15:37:36",1
"22/04/14","15:50",0.0,19.6,79.4,1006.9,304.6,3.0,6.7,325.0,0.02,16.0,17.7,"15:42:16",1
"22/04/14","16:00",0.0,19.4,80.1,1006.9,317.5,3.5,7.1,306.4,0.04,15.9,17.8,"15:53:04",1
"22/04/14","16:10",0.0,19.2,80.5,1007.1,311.0,3.1,5.1,330.3,0.02,15.8,17.5,"16:00:40",1
"22/04/14","16:20",0.0,19.0,80.9,1007.1,311.9,3.1,6.4,323.0,0.03,15.7,17.7,"16:12:48",1
"22/04/14","16:30",0.0,18.8,81.2,1007.6,317.0,3.1,4.8,326.3,0.03,15.6,17.7,"16:20:40",1
"22/04/14","16:40",0.0,18.4,81.6,1008.1,320.7,3.6,6.3,309.4,0.00,15.2,17.6,"16:39:28",1
"22/04/14","16:50",0.0,17.9,82.3,1008.1,307.0,3.4,5.8,305.2,0.02,14.9,17.7,"16:44:00",1
"22/04/14","17:00",0.0,18.0,83.0,1008.3,319.6,2.7,5.1,347.3,0.01,15.1,17.6,"16:52:48",1
"22/04/14","17:10",0.0,17.6,83.5,1008.3,323.0,3.4,5.6,315.3,0.00,14.8,17.7,"17:05:12",1
"22/04/14","17:20",0.0,17.3,84.5,1008.3,325.5,3.4,5.5,327.3,0.00,14.7,17.4,"17:12:48",1
"22/04/14","17:30",0.0,17.3,85.1,1008.1,333.3,3.0,4.8,329.2,0.00,14.8,17.6,"17:28:08",1
"22/04/14","17:40",0.0,17.4,85.4,1008.3,326.8,3.5,5.5,326.0,0.00,15.0,17.7,"17:36:16",1
"22/04/14","17:50",0.0,17.4,85.6,1008.1,332.5,3.0,4.5,332.9,0.00,15.0,17.6,"17:48:40",1
"22/04/14","18:00",0.0,17.3,85.7,1008.1,310.6,3.4,5.2,337.1,0.00,14.9,17.5,"17:57:20",1
"22/04/14","18:10",0.0,17.4,85.6,1008.1,301.7,3.1,5.1,333.6,0.00,15.0,17.4,"18:06:00",1
"22/04/14","18:20",0.0,17.2,85.6,1008.1,308.9,3.6,5.8,315.5,0.00,14.8,17.5,"18:11:04",1
"22/04/14","18:30",0.0,17.0,85.9,1008.3,321.6,3.5,6.2,291.1,0.00,14.7,17.4,"18:24:40",1
"22/04/14","18:40",0.0,16.9,86.2,1007.8,327.8,3.6,5.6,324.4,0.00,14.6,17.4,"18:30:16",1
"22/04/14","18:50",0.0,16.9,86.4,1008.3,327.5,3.9,5.9,346.2,0.00,14.7,17.3,"18:46:16",1
"22/04/14","19:00",0.0,16.8,86.7,1008.3,317.1,3.6,5.8,325.5,0.00,14.6,17.4,"18:50:32",1
"22/04/14","19:10",0.0,16.8,86.8,1008.3,329.6,2.5,4.7,304.3,0.00,14.6,17.2,"19:00:48",1
"22/04/14","19:20",0.0,16.9,86.9,1008.6,339.0,3.0,5.1,326.2,0.00,14.7,17.3,"19:19:44",1
"22/04/14","19:30",0.0,16.8,87.0,1008.6,330.4,3.6,4.8,337.8,0.00,14.7,17.2,"19:23:44",1
"22/04/14","19:40",0.0,16.7,87.0,1008.3,330.0,3.9,5.6,315.9,0.00,14.6,17.2,"19:37:12",1
"22/04/14","19:50",0.0,16.6,87.0,1008.6,325.8,3.9,7.1,321.6,0.00,14.5,17.1,"19:46:32",1
"22/04/14","20:00",0.0,16.6,87.1,1009.0,313.7,3.6,6.2,322.3,0.00,14.5,17.1,"19:51:52",1
"22/04/14","20:10",0.0,16.6,87.2,1009.3,311.4,3.2,5.8,325.4,0.00,14.5,17.0,"20:08:16",1
"22/04/14","20:20",0.0,16.4,87.2,1009.5,305.3,3.7,6.4,318.8,0.00,14.3,17.2,"20:13:12",1
"22/04/14","20:30",0.0,16.4,87.4,1009.5,306.8,3.9,5.9,324.6,0.00,14.3,17.1,"20:22:00",1
"22/04/14","20:40",1.0,16.0,88.2,1009.7,304.8,3.6,5.5,322.7,0.00,14.1,17.0,"20:31:36",1
"22/04/14","20:50",1.0,15.7,89.2,1010.0,308.6,3.5,5.5,314.5,0.00,14.0,17.0,"20:41:44",1
"22/04/14","21:00",1.0,15.4,90.0,1009.7,307.3,3.7,5.7,334.4,0.00,13.8,17.0,"20:52:56",1
"22/04/14","21:10",1.6,15.3,90.7,1010.0,298.8,3.1,5.4,313.7,0.00,13.8,16.7,"21:03:28",1
"22/04/14","21:20",1.0,15.2,91.4,1009.7,301.8,2.7,4.5,327.9,0.00,13.8,16.7,"21:13:28",1
"22/04/14","21:30",0.8,15.2,91.9,1009.5,298.9,2.5,5.1,318.3,0.00,13.9,16.8,"21:24:56",1
"22/04/14","21:40",0.6,14.9,92.3,1009.7,288.1,2.7,5.4,318.5,0.00,13.7,16.7,"21:39:20",1
"22/04/14","21:50",0.2,14.6,92.8,1010.0,325.9,4.5,6.0,298.4,0.00,13.5,16.8,"21:45:20",1
"22/04/14","22:00",0.0,14.5,93.2,1010.0,324.3,4.4,6.3,343.0,0.00,13.5,16.5,"21:52:40",1
"22/04/14","22:10",0.0,14.5,93.5,1010.0,311.1,3.6,5.7,317.8,0.00,13.5,16.8,"22:08:08",1
"22/04/14","22:20",0.0,14.5,93.7,1009.7,311.5,3.4,4.7,330.8,0.00,13.5,16.5,"22:16:24",1
"22/04/14","22:30",0.2,14.5,94.0,1009.7,318.5,3.6,6.2,323.6,0.00,13.6,16.6,"22:27:36",1
"22/04/14","22:40",0.0,14.6,94.2,1009.7,322.9,3.1,4.5,340.5,0.00,13.7,16.6,"22:38:16",1
"22/04/14","22:50",0.4,14.6,94.3,1010.2,319.9,3.5,6.0,316.3,0.00,13.7,16.6,"22:46:24",1
"22/04/14","23:00",0.2,14.6,94.5,1010.2,327.9,4.0,6.3,333.9,0.00,13.8,16.6,"22:50:02",1
"22/04/14","23:10",0.2,14.5,94.6,1010.4,320.7,4.1,6.6,353.6,0.00,13.7,16.5,"23:01:20",1
"22/04/14","23:20",0.0,14.7,94.7,1010.2,315.6,3.4,5.0,326.6,0.00,13.9,16.4,"23:18:00",1
"22/04/14","23:30",0.2,14.7,94.8,1009.7,317.8,3.0,5.0,342.9,0.00,13.9,16.3,"23:21:52",1
"22/04/14","23:40",0.2,14.7,95.0,1010.0,299.5,2.7,4.8,298.9,0.00,13.9,16.4,"23:30:02",1
"22/04/14","23:50",0.2,14.6,95.1,1009.7,307.7,2.8,5.5,318.4,0.00,13.9,16.6,"23:40:32",1
"22/04/14","24:00",0.0,14.6,95.2,1009.3,275.3,1.8,3.1,325.2,0.00,13.9,16.4,"23:50:40",1
